TimeMDT,TemperatureF,Dew PointF,Humidity,Sea Level PressureIn,VisibilityMPH,Wind Direction,Wind SpeedMPH,Gust SpeedMPH,PrecipitationIn,Events,Conditions,WindDirDegrees,DateUTC
12:53 AM,57.0,43.0,59,29.94,10.0,Calm,Calm,-,N/A,,Clear,0,2013-08-28 06:53:00
1:53 AM,54.0,43.0,66,29.95,10.0,Calm,Calm,-,N/A,,Clear,0,2013-08-28 07:53:00
2:53 AM,51.1,42.1,71,29.96,10.0,SE,4.6,-,N/A,,Clear,140,2013-08-28 08:53:00
3:53 AM,50.0,42.1,74,29.95,10.0,South,3.5,-,N/A,,Clear,190,2013-08-28 09:53:00
4:53 AM,50.0,41.0,71,29.94,10.0,Calm,Calm,-,N/A,,Clear,0,2013-08-28 10:53:00
5:53 AM,48.0,42.1,80,29.94,10.0,Calm,Calm,-,N/A,,Clear,0,2013-08-28 11:53:00
6:53 AM,46.9,41.0,80,29.97,10.0,Calm,Calm,-,N/A,,Clear,0,2013-08-28 12:53:00
7:53 AM,48.0,41.0,77,29.98,10.0,Calm,Calm,-,N/A,,Clear,0,2013-08-28 13:53:00
8:53 AM,55.0,45.0,69,29.97,10.0,Calm,Calm,-,N/A,,Clear,0,2013-08-28 14:53:00
9:53 AM,64.9,45.0,48,29.95,10.0,North,3.5,-,N/A,,Clear,350,2013-08-28 15:53:00
10:53 AM,75.0,48.9,40,29.92,10.0,SE,15.0,23.0,N/A,,Clear,140,2013-08-28 16:53:00
11:53 AM,75.0,48.9,40,29.93,10.0,SE,8.1,-,N/A,,Mostly Cloudy,140,2013-08-28 17:53:00
12:53 PM,75.0,48.9,40,29.94,10.0,WNW,6.9,-,N/A,,Overcast,300,2013-08-28 18:53:00
1:02 PM,69.8,46.4,43,30.10,10.0,NW,21.9,29.9,N/A,Thunderstorm,Overcast,320,2013-08-28 19:02:00
1:15 PM,69.8,46.4,43,30.11,10.0,NW,17.3,-,0.00,Rain-Thunderstorm,Light Rain,320,2013-08-28 19:15:00
1:48 PM,59.0,53.6,82,30.22,1.8,West,10.4,27.6,0.06,Rain-Thunderstorm,Heavy Thunderstorms and Rain,280,2013-08-28 19:48:00
1:53 PM,57.9,53.1,84,30.12,2.0,NW,5.8,-,0.07,Rain-Thunderstorm,Thunderstorms and Rain,310,2013-08-28 19:53:00
2:03 PM,57.2,55.4,94,30.20,5.0,NE,9.2,-,0.01,Rain-Thunderstorm,Light Thunderstorms and Rain,40,2013-08-28 20:03:00
2:23 PM,59.0,53.6,82,30.19,10.0,Calm,Calm,-,0.01,Rain,Light Rain,0,2013-08-28 20:23:00
2:53 PM,61.0,54.0,78,30.09,10.0,Calm,Calm,-,0.01,,Mostly Cloudy,0,2013-08-28 20:53:00
3:53 PM,64.9,51.1,61,30.05,10.0,Variable,3.5,-,N/A,,Clear,0,2013-08-28 21:53:00
4:53 PM,68.0,52.0,56,30.04,10.0,Calm,Calm,-,N/A,,Clear,0,2013-08-28 22:53:00
5:53 PM,70.0,52.0,53,30.02,10.0,ESE,3.5,-,N/A,,Clear,110,2013-08-28 23:53:00
6:53 PM,73.0,50.0,44,30.02,10.0,Calm,Calm,-,N/A,,Clear,0,2013-08-29 00:53:00
7:41 PM,71.6,51.8,50,30.14,10.0,Calm,Calm,-,N/A,,Partly Cloudy,0,2013-08-29 01:41:00
7:53 PM,71.1,51.1,49,30.01,10.0,Calm,Calm,-,N/A,,Clear,0,2013-08-29 01:53:00
8:53 PM,64.0,54.0,70,30.03,10.0,Calm,Calm,-,N/A,,Clear,0,2013-08-29 02:53:00
9:53 PM,61.0,53.1,75,30.04,10.0,Calm,Calm,-,N/A,,Clear,0,2013-08-29 03:53:00
10:53 PM,57.0,52.0,83,30.03,10.0,Calm,Calm,-,N/A,,Clear,0,2013-08-29 04:53:00
11:53 PM,54.0,51.1,90,30.04,10.0,ESE,4.6,-,N/A,,Clear,110,2013-08-29 05:53:00